Home > Weather > Creston > Past weeks

Flag for Canada Weather for the Past 2 Weeks in Creston, British Columbia, Canada

Now
36 °F

Chilly.


Feels Like: 27 °F
Forecast: 33 / 45 °F
Wind: 14 mph from South

Location: Creston

Current Time: Feb 14, 2016 at 1:32:40 AM

Latest Report: Feb 14, 2016 at 12:00 AM


Visibility: N/A

Pressure: 30.06 "Hg (27.85 "Hg at 617m altitude)

Humidity: 91%

Dew point: 34 °F

Location of CrestonLocation

Historic Weather in Creston — Graph

°F

Creston Temperature Yesterday

Maximum temperature yesterday: 46 °F (at 2:00 PM)
Minimum temperature yesterday: 36 °F (at 1:00 AM)
Average temperature yesterday: 41 °F

High & Low Weather Summary for the Past Weeks

 TemperatureHumidityPressure
High46 °F (Feb 13, 2:00 PM)100% (Jan 30, 12:00 AM)30.77 "Hg (Jan 30, 12:00 AM)
Low21 °F (Feb 3, 7:00 AM)38% (Feb 6, 1:00 PM)29.74 "Hg (Jan 30, 12:00 AM)
Average33 °F86%30.30 "Hg
* Reported Midnight between Jan 29 and Jan 30 — Midnight between Feb 13 and Feb 14, Creston, Weather by CustomWeather, © 2016

Note: Actual official high and low records may vary slightly from our data, if they occured in-between our weather recording intervals... More about our weather records

Advertising

Creston Weather History for the Previous 24 Hours

 ConditionsComfort  
Time TempWeatherWind HumidityBarometerVisibility
12:00 AM
Sun, Feb 14
36 °FChilly.14 mph91%30.06 "HgN/A
11:00 PM
Sat, Feb 13
37 °FChilly.13 mph88%30.09 "HgN/A
10:00 PM38 °FChilly.14 mph82%30.11 "HgN/A
9:00 PM40 °FChilly.10 mph73%30.12 "HgN/A
8:00 PM41 °FQuite cool.9 mph75%30.13 "HgN/A
7:00 PM41 °FQuite cool.10 mph74%30.14 "HgN/A
6:00 PM42 °FQuite cool.12 mph65%30.14 "HgN/A
5:00 PM44 °FQuite cool.7 mph66%30.16 "HgN/A
4:00 PM45 °FQuite cool.12 mph64%30.16 "HgN/A
3:00 PM46 °FCool.14 mph68%30.15 "HgN/A
2:00 PM46 °FCool.10 mph65%30.17 "HgN/A
1:00 PM46 °FCool.13 mph73%30.18 "HgN/A
12:00 PM46 °FCool.5 mph75%30.18 "HgN/A
11:00 AM43 °FQuite cool.5 mph84%30.17 "HgN/A
10:00 AM42 °FQuite cool.7 mph84%30.17 "HgN/A
9:00 AM39 °FChilly.2 mph92%30.18 "HgN/A
8:00 AM38 °FChilly.2 mph94%30.16 "HgN/A
7:00 AM38 °FChilly.5 mph96%30.14 "HgN/A
6:00 AM40 °FChilly.5 mph90%30.11 "HgN/A
5:00 AM38 °FChilly.1 mph98%30.10 "HgN/A
4:00 AM38 °FChilly.3 mph96%30.09 "HgN/A
3:00 AM39 °FChilly.3 mph98%30.09 "HgN/A
2:00 AM38 °FChilly.2 mph98%30.08 "HgN/A
1:00 AM36 °FChilly.3 mph100%30.09 "HgN/A
Weather by CustomWeather, © 2016

See weather overviewHow to use our weather pages